AirNav   Air Wisconsin pilot careers
 
 653 users online  

CA84 Torrey Pines Gliderport
San Diego, California, USA

GOING TO SAN DIEGO?


FAA INFORMATION EFFECTIVE 11 OCTOBER 2018

Location

FAA Identifier: CA84
Lat/Long: 32-53-23.0000N / 117-14-49.0000W
32-53.383333N / 117-14.816667W
32.8897222 / -117.2469444
(estimated)
Elevation: 372 ft. / 113 m (estimated)
Variation: 13E (1985)
From city: 11 miles NW of SAN DIEGO, CA
Time zone: UTC -7 (UTC -8 during Standard Time)
Zip code: 92037

Gliderport Operations

Gliderport use: Private use. Permission required prior to landing
Activation date: 11/1961
Control tower: no
ARTCC: LOS ANGELES CENTER
FSS: SAN DIEGO FLIGHT SERVICE STATION
Attendance: UNATNDD
Wind indicator: no
Segmented circle: no

Gliderport Communications

WX ASOS at MYF (7 nm SE): 126.9 (858-576-4337)
WX ASOS at SAN (10 nm S): PHONE 619-296-8934
WX AWOS-3P at SEE (14 nm E): 125.45 (619-449-1228)
WX ASOS at CRQ (14 nm N): PHONE 760-930-0864
WX ASOS at RNM (19 nm NE): 132.025 (760-789-0736)

Nearby radio navigation aids

VOR radial/distance  VOR name  Freq  Var
MZBr335/6.5MISSION BAY VORTAC117.8015E
PGYr307/21.5POGGI VORTAC109.8014E
OCNr143/22.7OCEANSIDE VORTAC115.3015E
TIJr311/25.7TIJUANA VOR/DME116.5014E
JLIr231/36.5JULIAN VORTAC114.0015E

Gliderport Services

Airframe service: NONE
Powerplant service: NONE

Runway Information

Runway 9/27

Dimensions: 1500 x 30 ft. / 457 x 9 m
Surface: asphalt
RUNWAY 9  RUNWAY 27
Traffic pattern: leftleft
Obstructions: nonetrees, 100 ft. from runway

Gliderport Ownership and Management from official FAA records

Ownership: Publicly-owned
Owner: CITY OF SAN DIEGO
Manager: JIM FROST
4740 HARBINSON AVE
LA MESA, CA 91941
Phone 619-461-9614
WORK PHONE 619-535-9505 EXT 1585

Additional Remarks

GLIDER PORT IS LEASED FM CITY TO THE ASSOCD GLIDER CLUB OF SOUTHERN CALIF FOR STUDENT TRAINING & RIDGE SOARING.
ALL ACFT ARE TRAILERED GLIDERS.
ROLLING RWY .6 PERCENT GRADIENT.
EXTENSIVE HANG GLIDER OPERATIONS ON WEEKENDS AND WEEKDAYS.

Instrument Procedures

There are no published instrument procedures at CA84.

Some nearby airports with instrument procedures:

KNKX - Miramar MCAS (Joe Foss Field) Airport (5 nm E)
KMYF - Montgomery-Gibbs Executive Airport (7 nm SE)
KSAN - San Diego International Airport (10 nm S)
KNZY - North Island Naval Air Station (Halsey Field) (12 nm S)
KSEE - Gillespie Field Airport (14 nm E)
KCRQ - Mc Clellan-Palomar Airport (14 nm N)
KRNM - Ramona Airport (19 nm NE)
 
Loc | Ops | Rwys | IFR | FBO | Links
Com | Nav | Svcs | Stats | Notes


 
Area around CA84 (Torrey Pines Gliderport)
 
Road maps at: MapQuest Bing Google
 
Aerial photo
WARNING: Photo may not be current or correct
Aerial photo of CA84 (Torrey Pines Gliderport)
Photo by Doug Fronius
Photo taken 13-Mar-2004
from a 1942 Schweizer TG-2 sailplane.

Do you have a better or more recent aerial photo of Torrey Pines Gliderport that you would like to share? If so, please send us your photo.

 
Sectional chart

 
Airport distance calculator
Flying to Torrey Pines Gliderport? Find the distance to fly.

From to CA84

Sunrise and sunset
Times for 23-Oct-2018
 Local
(UTC-7)
 Zulu
(UTC)
Morning civil twilight06:3513:35
Sunrise07:0014:00
Sunset18:0601:06
Evening civil twilight18:3101:31

Current date and time
Zulu (UTC)  24-Oct-2018 04:13:54
Local (UTC-7)  23-Oct-2018 21:13:54
 
METAR
KNKX 
6nm E 
240355Z 30004KT 7SM BKN010 19/15 A2989 RMK AO2 SLP117 T01890150
KMYF 
7nm SE 
240403Z AUTO 32003KT 6SM HZ SCT010 18/16 A2990 RMK AO2 T01830156
KSAN 
10nm S 
240351Z 34006KT 10SM OVC013 18/16 A2990 RMK AO2 SLP125 T01780156
KNZY 
11nm S 
240352Z 31006KT 10SM OVC013 19/15 A2988 RMK SLP119 T01890150
KCRQ 
15nm N 
240353Z 00000KT 7SM SCT010 SCT016 18/16 A2988 RMK AO2 SLP117 T01830161
KSEE 
15nm E 
240247Z 29005KT 10SM SKC 18/15 A2989
KRNM 
19nm NE 
240353Z AUTO 00000KT 5SM BR CLR 15/13 A2990 RMK AO2 SLP118 T01500128
TAF
KNKX 
6nm E 
2400/2421 29007KT 9999 SCT011 QNH2986INS BECMG 2401/2403 VRB05KT 9999 BKN012 QNH2986INS TEMPO 2409/2415 OVC008 FM241630 30007KT 9999 FEW050 SCT100 QNH2988INS T16/2313Z T26/2321Z AMD 0044
KSAN 
10nm S 
231951Z 2320/2424 30008KT P6SM SCT015 TEMPO 2320/2324 BKN015 FM240100 VRB04KT P6SM BKN015 FM240400 VRB03KT 6SM BR OVC008 FM241600 VRB03KT P6SM SCT010 FM241900 28007KT P6SM SKC
KNZY 
11nm S 
2323/2423 31011KT 9999 BKN015 BKN250 QNH2981INS FM240300 VRB06KT 9999 BKN015 QNH2984INS TEMPO 2410/2416 8000 BR OVC010 FM242000 29011KT 9999 SCT020 SCT250 QNH2985INS T17/2412Z T24/2421Z FS30022
KCRQ 
15nm N 
231920Z 2319/2418 26005KT P6SM SCT015 TEMPO 2320/2324 BKN013 FM240000 VRB02KT P6SM BKN010 FM240200 VRB02KT 6SM BR OVC007 FM241200 VRB02KT 3SM BR OVC007 FM241600 VRB02KT P6SM SCT010
NOTAMs
Click for the latest NOTAMs
NOTAMs are issued by the DoD/FAA and will open in a separate window not controlled by AirNav.

 

 
 

Would you like to see your business listed on this page?

 If your business provides an interesting product or service to pilots, flight crews, aircraft, or users of the Torrey Pines Gliderport, you should consider listing it here.  To start the listing process, click on the button below
 
Add a business
 

Other Pages about Torrey Pines Gliderport

www.agcsc.org/torrey_pines_info.html
 
Update a link
 
Copyright © AirNav, LLC. All rights reserved. Privacy Policy  Contact